| time (UTC) | temp F | wind direction | speed MPH | gust MPH | rain 1hr in | rain 24hr in | rain mn in | humidity % | barometer mb |
| 20260510153017 | 58 | 202 | 5.0 | 10.0 | 0.00 | 0.00 | 0.00 | 49 | 1010.3 |
| 20260510152021 | 58 | 222 | 4.0 | 9.0 | 0.00 | 0.00 | 0.00 | 53 | 1010.3 |
| 20260510151018 | 57 | 225 | 4.0 | 12.0 | 0.00 | 0.00 | 0.00 | 55 | 1010.2 |
| 20260510150019 | 58 | 242 | 4.0 | 9.0 | 0.00 | 0.00 | 0.00 | 55 | 1010.1 |
| 20260510145018 | 58 | 208 | 4.0 | 10.0 | 0.00 | 0.00 | 0.00 | 54 | 1010.1 |
| 20260510144018 | 57 | 200 | 3.0 | 7.0 | 0.00 | 0.00 | 0.00 | 57 | 1010.1 |
| 20260510143018 | 57 | 246 | 4.0 | 10.0 | 0.00 | 0.00 | 0.00 | 60 | 1010.0 |
| 20260510142019 | 57 | 212 | 4.0 | 9.0 | 0.00 | 0.00 | 0.00 | 59 | 1009.9 |
| 20260510141019 | 56 | 219 | 3.0 | 8.0 | 0.00 | 0.00 | 0.00 | 60 | 1009.8 |
| 20260510140019 | 55 | 239 | 3.0 | 8.0 | 0.00 | 0.00 | 0.00 | 62 | 1009.7 |
| 20260510135019 | 56 | 216 | 4.0 | 9.0 | 0.00 | 0.00 | 0.00 | 62 | 1009.8 |
| 20260510134042 | 56 | 214 | 4.0 | 8.0 | 0.00 | 0.00 | 0.00 | 64 | 1009.7 |
| 20260510133019 | 55 | 277 | 3.0 | 9.0 | 0.00 | 0.00 | 0.00 | 64 | 1009.7 |
| 20260510132019 | 55 | 231 | 3.0 | 9.0 | 0.00 | 0.00 | 0.00 | 66 | 1009.5 |
| 20260510131021 | 55 | 242 | 4.0 | 9.0 | 0.00 | 0.00 | 0.00 | 66 | 1009.4 |
| 20260510130020 | 55 | 251 | 4.0 | 10.0 | 0.00 | 0.00 | 0.00 | 64 | 1009.2 |
| 20260510125017 | 54 | 229 | 5.0 | 8.0 | 0.00 | 0.00 | 0.00 | 66 | 1009.1 |
| 20260510124020 | 54 | 257 | 3.0 | 7.0 | 0.00 | 0.00 | 0.00 | 70 | 1009.0 |
| 20260510123021 | 54 | 224 | 3.0 | 7.0 | 0.00 | 0.00 | 0.00 | 70 | 1008.9 |
| 20260510122018 | 54 | 239 | 3.0 | 8.0 | 0.00 | 0.00 | 0.00 | 70 | 1009.0 |
| 20260510121018 | 54 | 261 | 3.0 | 6.0 | 0.00 | 0.00 | 0.00 | 68 | 1008.9 |
| 20260510120045 | 53 | 228 | 3.0 | 6.0 | 0.00 | 0.00 | 0.00 | 68 | 1008.8 |
| 20260510115018 | 53 | 232 | 4.0 | 10.0 | 0.00 | 0.00 | 0.00 | 69 | 1008.7 |
| 20260510114018 | 53 | 215 | 3.0 | 8.0 | 0.00 | 0.00 | 0.00 | 75 | 1008.6 |
| 20260510113027 | 53 | 211 | 2.0 | 4.0 | 0.00 | 0.00 | 0.00 | 77 | 1008.6 |
| 20260510112038 | 53 | 228 | 3.0 | 6.0 | 0.00 | 0.00 | 0.00 | 79 | 1008.5 |
| 20260510111018 | 53 | 208 | 3.0 | 7.0 | 0.00 | 0.00 | 0.00 | 80 | 1008.4 |
| 20260510110018 | 53 | 209 | 4.0 | 8.0 | 0.00 | 0.00 | 0.00 | 81 | 1008.2 |
| 20260510105019 | 52 | 201 | 3.0 | 6.0 | 0.00 | 0.00 | 0.00 | 82 | 1007.7 |
| 20260510104019 | 52 | 210 | 3.0 | 7.0 | 0.00 | 0.00 | 0.00 | 84 | 1007.6 |
| 20260510103019 | 52 | 211 | 4.0 | 8.0 | 0.00 | 0.00 | 0.00 | 87 | 1007.6 |
| 20260510102029 | 52 | 199 | 2.0 | 5.0 | 0.00 | 0.00 | 0.00 | 90 | 1007.6 |
| 20260510101019 | 52 | 198 | 3.0 | 6.0 | 0.00 | 0.00 | 0.00 | 90 | 1007.6 |
| 20260510100029 | 51 | 207 | 2.0 | 4.0 | 0.00 | 0.00 | 0.00 | 91 | 1007.4 |
| 20260510095029 | 51 | 192 | 3.0 | 4.0 | 0.00 | 0.00 | 0.00 | 91 | 1007.2 |
| 20260510094029 | 51 | 216 | 2.0 | 4.0 | 0.00 | 0.00 | 0.00 | 92 | 1007.1 |
| 20260510093030 | 51 | 215 | 2.0 | 4.0 | 0.00 | 0.00 | 0.00 | 93 | 1006.9 |
| 20260510092020 | 50 | 191 | 3.0 | 5.0 | 0.00 | 0.00 | 0.00 | 93 | 1006.6 |
| 20260510091029 | 50 | 194 | 2.0 | 4.0 | 0.00 | 0.00 | 0.00 | 94 | 1006.7 |
| 20260510090031 | 51 | 198 | 2.0 | 4.0 | 0.00 | 0.00 | 0.00 | 93 | 1006.6 |
| 20260510085022 | 51 | 196 | 3.0 | 5.0 | 0.00 | 0.00 | 0.00 | 93 | 1006.4 |
| 20260510084041 | 51 | 197 | 3.0 | 7.0 | 0.00 | 0.00 | 0.00 | 93 | 1006.5 |
| 20260510083022 | 51 | 198 | 4.0 | 6.0 | 0.00 | 0.00 | 0.00 | 93 | 1006.5 |
| 20260510082021 | 51 | 202 | 3.0 | 7.0 | 0.00 | 0.00 | 0.00 | 93 | 1006.5 |
| 20260510081021 | 51 | 192 | 4.0 | 7.0 | 0.00 | 0.00 | 0.00 | 93 | 1006.3 |
| 20260510080021 | 51 | 196 | 4.0 | 7.0 | 0.00 | 0.00 | 0.00 | 93 | 1006.3 |
| 20260510075042 | 51 | 196 | 4.0 | 8.0 | 0.00 | 0.00 | 0.00 | 93 | 1006.2 |
| 20260510074023 | 51 | 205 | 2.0 | 5.0 | 0.00 | 0.00 | 0.00 | 93 | 1006.2 |
| 20260510073022 | 51 | 204 | 4.0 | 6.0 | 0.00 | 0.00 | 0.00 | 93 | 1006.2 |
| 20260510072022 | 51 | 198 | 4.0 | 8.0 | 0.00 | 0.00 | 0.00 | 93 | 1006.1 |
| 20260510071042 | 51 | 191 | 3.0 | 7.0 | 0.00 | 0.00 | 0.00 | 93 | 1006.0 |
| 20260510070022 | 51 | 194 | 4.0 | 8.0 | 0.00 | 0.00 | 0.00 | 93 | 1005.9 |
| 20260510065016 | 51 | 196 | 4.0 | 9.0 | 0.00 | 0.00 | 0.00 | 93 | 1005.9 |
| 20260510064044 | 51 | 194 | 5.0 | 9.0 | 0.00 | 0.00 | 0.00 | 93 | 1005.8 |
| 20260510063023 | 51 | 186 | 4.0 | 8.0 | 0.00 | 0.00 | 0.00 | 94 | 1005.7 |
| 20260510062017 | 51 | 190 | 5.0 | 9.0 | 0.00 | 0.00 | 0.00 | 94 | 1005.8 |
| 20260510061057 | 51 | 182 | 5.0 | 9.0 | 0.00 | 0.00 | 0.00 | 95 | 1005.8 |
| 20260510060023 | 51 | 184 | 6.0 | 8.0 | 0.00 | 0.00 | 0.00 | 94 | 1006.0 |
| 20260510055043 | 51 | 186 | 5.0 | 8.0 | 0.00 | 0.00 | 0.00 | 93 | 1006.2 |
| 20260510054018 | 52 | 186 | 5.0 | 10.0 | 0.00 | 0.00 | 0.00 | 92 | 1006.3 |
| 20260510053019 | 52 | 194 | 4.0 | 9.0 | 0.00 | 0.00 | 0.00 | 89 | 1006.3 |
| 20260510052019 | 52 | 186 | 5.0 | 8.0 | 0.00 | 0.00 | 0.00 | 87 | 1006.2 |
| 20260510051019 | 52 | 197 | 6.0 | 10.0 | 0.00 | 0.00 | 0.00 | 84 | 1006.3 |
| 20260510050020 | 52 | 194 | 5.0 | 9.0 | 0.00 | 0.00 | 0.00 | 83 | 1006.0 |
| 20260510045041 | 52 | 180 | 7.0 | 12.0 | 0.00 | 0.00 | 0.00 | 82 | 1006.1 |
| 20260510044019 | 52 | 176 | 5.0 | 10.0 | 0.00 | 0.00 | 0.00 | 82 | 1006.0 |
| 20260510043017 | 52 | 180 | 5.0 | 9.0 | 0.00 | 0.00 | 0.00 | 81 | 1005.9 |
| 20260510042019 | 52 | 174 | 4.0 | 9.0 | 0.00 | 0.00 | 0.00 | 81 | 1005.7 |
| 20260510041017 | 52 | 182 | 5.0 | 13.0 | 0.00 | 0.00 | 0.00 | 80 | 1005.5 |
| 20260510040017 | 52 | 185 | 5.0 | 13.0 | 0.00 | 0.00 | 0.00 | 80 | 1005.8 |
| 20260510035021 | 52 | 171 | 6.0 | 12.0 | 0.00 | 0.00 | 0.00 | 80 | 1005.6 |
| 20260510034018 | 52 | 180 | 6.0 | 12.0 | 0.00 | 0.00 | 0.00 | 81 | 1005.9 |
| 20260510033017 | 52 | 178 | 4.0 | 8.0 | 0.00 | 0.00 | 0.00 | 81 | 1006.0 |
| 20260510032018 | 52 | 177 | 6.0 | 13.0 | 0.00 | 0.00 | 0.00 | 82 | 1006.1 |
| 20260510031017 | 52 | 173 | 6.0 | 11.0 | 0.00 | 0.00 | 0.00 | 82 | 1005.9 |
| 20260510030018 | 52 | 186 | 6.0 | 10.0 | 0.00 | 0.00 | 0.00 | 83 | 1006.3 |
| 20260510025018 | 52 | 180 | 5.0 | 9.0 | 0.00 | 0.00 | 0.00 | 83 | 1006.5 |
| 20260510024018 | 52 | 181 | 6.0 | 12.0 | 0.00 | 0.00 | 0.00 | 83 | 1006.6 |
| 20260510023018 | 52 | 187 | 6.0 | 11.0 | 0.00 | 0.00 | 0.00 | 82 | 1006.7 |
| 20260510022018 | 52 | 178 | 5.0 | 9.0 | 0.00 | 0.00 | 0.00 | 82 | 1006.8 |
| 20260510021020 | 52 | 180 | 5.0 | 12.0 | 0.00 | 0.00 | 0.00 | 82 | 1006.9 |
| 20260510020019 | 52 | 184 | 6.0 | 15.0 | 0.00 | 0.00 | 0.00 | 81 | 1007.1 |
| 20260510015020 | 52 | 183 | 5.0 | 10.0 | 0.00 | 0.00 | 0.00 | 81 | 1007.4 |
| 20260510014019 | 53 | 176 | 7.0 | 12.0 | 0.00 | 0.00 | 0.00 | 80 | 1007.1 |
| 20260510013016 | 53 | 178 | 5.0 | 10.0 | 0.00 | 0.00 | 0.00 | 79 | 1007.2 |
| 20260510012019 | 53 | 177 | 7.0 | 15.0 | 0.00 | 0.00 | 0.00 | 77 | 1007.2 |
| 20260510011020 | 53 | 176 | 5.0 | 11.0 | 0.00 | 0.00 | 0.00 | 76 | 1007.2 |
| 20260510010021 | 53 | 179 | 7.0 | 11.0 | 0.00 | 0.00 | 0.00 | 75 | 1007.1 |
| 20260510005038 | 54 | 172 | 6.0 | 13.0 | 0.00 | 0.00 | 0.00 | 74 | 1007.1 |
| 20260510004020 | 54 | 192 | 5.0 | 11.0 | 0.00 | 0.00 | 0.00 | 74 | 1007.3 |
| 20260510003017 | 54 | 180 | 6.0 | 9.0 | 0.00 | 0.00 | 0.00 | 74 | 1007.1 |
| 20260510002017 | 54 | 186 | 6.0 | 12.0 | 0.00 | 0.00 | 0.00 | 74 | 1007.0 |
| 20260510001021 | 54 | 187 | 5.0 | 11.0 | 0.00 | 0.00 | 0.00 | 73 | 1007.1 |
| 20260510000018 | 55 | 185 | 4.0 | 9.0 | 0.00 | 0.00 | 0.00 | 73 | 1007.1 |
| 20260509235018 | 55 | 196 | 4.0 | 8.0 | 0.00 | 0.00 | 0.00 | 73 | 1007.0 |
| 20260509234019 | 55 | 183 | 7.0 | 15.0 | 0.00 | 0.00 | 0.00 | 73 | 1006.9 |
| 20260509233018 | 56 | 178 | 6.0 | 11.0 | 0.00 | 0.00 | 0.00 | 72 | 1006.9 |
| 20260509232019 | 56 | 193 | 6.0 | 12.0 | 0.00 | 0.00 | 0.00 | 70 | 1006.9 |
| 20260509231019 | 57 | 184 | 4.0 | 8.0 | 0.00 | 0.00 | 0.00 | 69 | 1007.0 |
| 20260509230020 | 57 | 176 | 7.0 | 14.0 | 0.00 | 0.00 | 0.00 | 67 | 1007.1 |
| 20260509225039 | 58 | 171 | 6.0 | 13.0 | 0.00 | 0.00 | 0.00 | 65 | 1007.1 |
| 20260509224040 | 58 | 199 | 5.0 | 9.0 | 0.00 | 0.00 | 0.00 | 65 | 1007.2 |
| 20260509223040 | 58 | 178 | 6.0 | 11.0 | 0.00 | 0.00 | 0.00 | 65 | 1007.3 |
| 20260509222016 | 59 | 173 | 7.0 | 14.0 | 0.00 | 0.00 | 0.00 | 63 | 1007.1 |
| 20260509221019 | 59 | 174 | 6.0 | 10.0 | 0.00 | 0.00 | 0.00 | 62 | 1007.0 |
| 20260509220020 | 59 | 173 | 6.0 | 13.0 | 0.00 | 0.00 | 0.00 | 60 | 1007.0 |
| 20260509215017 | 60 | 186 | 6.0 | 14.0 | 0.00 | 0.00 | 0.00 | 57 | 1007.1 |
| 20260509214020 | 60 | 185 | 7.0 | 14.0 | 0.00 | 0.00 | 0.00 | 56 | 1007.2 |
| 20260509213037 | 61 | 186 | 6.0 | 11.0 | 0.00 | 0.00 | 0.00 | 53 | 1007.4 |
| 20260509212017 | 61 | 177 | 6.0 | 12.0 | 0.00 | 0.00 | 0.00 | 53 | 1007.3 |
| 20260509211021 | 61 | 184 | 6.0 | 13.0 | 0.00 | 0.00 | 0.00 | 53 | 1007.2 |
| 20260509210019 | 61 | 185 | 6.0 | 10.0 | 0.00 | 0.00 | 0.00 | 51 | 1007.3 |
| 20260509205018 | 61 | 167 | 6.0 | 12.0 | 0.00 | 0.00 | 0.00 | 51 | 1007.3 |
| 20260509204022 | 62 | 180 | 5.0 | 10.0 | 0.00 | 0.00 | 0.00 | 49 | 1007.4 |
| 20260509203018 | 62 | 181 | 5.0 | 10.0 | 0.00 | 0.00 | 0.00 | 47 | 1007.4 |
| 20260509202018 | 62 | 183 | 6.0 | 12.0 | 0.00 | 0.00 | 0.00 | 44 | 1007.5 |
| 20260509201019 | 63 | 181 | 5.0 | 11.0 | 0.00 | 0.00 | 0.00 | 41 | 1007.6 |
| 20260509200019 | 63 | 182 | 6.0 | 16.0 | 0.00 | 0.00 | 0.00 | 42 | 1007.6 |
| 20260509195041 | 63 | 186 | 6.0 | 10.0 | 0.00 | 0.00 | 0.00 | 39 | 1007.7 |
| 20260509194019 | 64 | 184 | 6.0 | 12.0 | 0.00 | 0.00 | 0.00 | 34 | 1007.7 |
| 20260509193017 | 64 | 191 | 6.0 | 12.0 | 0.00 | 0.00 | 0.00 | 31 | 1007.7 |
| 20260509192020 | 64 | 180 | 6.0 | 13.0 | 0.00 | 0.00 | 0.00 | 29 | 1007.7 |
| 20260509191040 | 64 | 180 | 6.0 | 17.0 | 0.00 | 0.00 | 0.00 | 28 | 1007.8 |
| 20260509190017 | 64 | 188 | 4.0 | 11.0 | 0.00 | 0.00 | 0.00 | 30 | 1007.8 |
| 20260509185020 | 64 | 188 | 5.0 | 13.0 | 0.00 | 0.00 | 0.00 | 28 | 1008.0 |
| 20260509184037 | 64 | 184 | 5.0 | 9.0 | 0.00 | 0.00 | 0.00 | 26 | 1008.2 |
| 20260509183018 | 64 | 183 | 5.0 | 11.0 | 0.00 | 0.00 | 0.00 | 28 | 1008.2 |
| 20260509182020 | 64 | 176 | 4.0 | 11.0 | 0.00 | 0.00 | 0.00 | 29 | 1008.5 |
| 20260509181018 | 63 | 184 | 5.0 | 13.0 | 0.00 | 0.00 | 0.00 | 27 | 1008.5 |
| 20260509180019 | 64 | 175 | 4.0 | 9.0 | 0.00 | 0.00 | 0.00 | 28 | 1008.8 |
| 20260509175039 | 64 | 172 | 3.0 | 6.0 | 0.00 | 0.00 | 0.00 | 28 | 1009.0 |
| 20260509174018 | 63 | 176 | 5.0 | 10.0 | 0.00 | 0.00 | 0.00 | 28 | 1009.1 |
| 20260509173019 | 63 | 176 | 5.0 | 13.0 | 0.00 | 0.00 | 0.00 | 28 | 1009.2 |
| 20260509172040 | 63 | 178 | 4.0 | 10.0 | 0.00 | 0.00 | 0.00 | 28 | 1009.3 |
| 20260509171020 | 62 | 189 | 4.0 | 9.0 | 0.00 | 0.00 | 0.00 | 29 | 1009.5 |
| 20260509170020 | 62 | 184 | 5.0 | 9.0 | 0.00 | 0.00 | 0.00 | 28 | 1009.8 |
| 20260509165019 | 62 | 168 | 6.0 | 12.0 | 0.00 | 0.00 | 0.00 | 28 | 1009.9 |
| 20260509164019 | 62 | 191 | 4.0 | 10.0 | 0.00 | 0.00 | 0.00 | 30 | 1009.9 |
| 20260509163040 | 62 | 181 | 6.0 | 11.0 | 0.00 | 0.00 | 0.00 | 30 | 1010.0 |
| 20260509162018 | 61 | 183 | 5.0 | 11.0 | 0.00 | 0.00 | 0.00 | 31 | 1010.2 |
| 20260509161021 | 61 | 183 | 5.0 | 9.0 | 0.00 | 0.00 | 0.00 | 30 | 1010.3 |
| 20260509160019 | 61 | 183 | 6.0 | 12.0 | 0.00 | 0.00 | 0.00 | 32 | 1010.4 |
| 20260509155018 | 60 | 179 | 6.0 | 10.0 | 0.00 | 0.00 | 0.00 | 35 | 1010.7 |
| 20260509154041 | 59 | 177 | 6.0 | 10.0 | 0.00 | 0.00 | 0.00 | 35 | 1010.8 |